Location: Burleson Fire Department Station 2
(32.5391°N, 97.3075°W)
Time: 04:37:43
(UTC+00:00)

Hubble Space Telescope - Visible Passes

Search period start: 14 October 2024 00:00
Search period end: 24 October 2024 00:00
Orbit: 503 x 507 km, 28.5° (Epoch: 13 October)

Date Brightness Start Highest point End Pass type
(mag) Time Alt. Az. Time Alt. Az. Time Alt. Az.
14 Oct 2.9 01:33:08 10° SSW 01:34:18 13° S 01:34:18 13° S visible
15 Oct 2.5 01:11:21 10° SSW 01:13:51 16° SSE 01:14:12 16° SSE visible
16 Oct 2.5 00:49:35 10° SSW 00:52:17 18° SSE 00:54:01 14° SE visible
16 Oct 3.8 02:28:37 10° WSW 02:28:40 10° WSW 02:28:40 10° WSW visible
17 Oct 2.5 00:27:49 10° SSW 00:30:41 19° SSE 00:33:34 10° ESE visible
17 Oct 3.0 02:07:01 10° WSW 02:08:24 20° SW 02:08:24 20° SW visible
18 Oct 1.9 01:45:24 10° WSW 01:48:04 33° SSW 01:48:04 33° SSW visible
19 Oct 1.2 01:23:46 10° WSW 01:27:30 43° S 01:27:41 42° SSE visible
20 Oct 1.3 01:02:06 10° WSW 01:05:51 44° S 01:07:16 30° SE visible
21 Oct 1.3 00:40:25 10° WSW 00:44:11 45° S 00:46:49 18° ESE visible
21 Oct 3.6 02:20:42 10° WSW 02:21:27 15° WSW 02:21:27 15° WSW visible
22 Oct 1.4 00:18:43 10° WSW 00:22:29 45° S 00:26:15 10° ESE visible
22 Oct 2.7 01:59:01 10° WSW 02:00:59 24° WSW 02:00:59 24° WSW visible
23 Oct 1.9 01:37:20 10° WSW 01:40:32 33° SSW 01:40:32 33° SSW visible
